(281718) = 2008 WE114

Discovered at Kitt Peak on 2008-11-30 by Spacewatch.

Orbit

Orbit type: Main Belt

Note: WebGL enabled browser required.

epoch2023-09-13.0
epoch JD2460200.5
perihelion date2022-02-25.12673
perihelion JD2459635.62673
argument of perihelion (°)328.23594
ascending node (°)260.59029
inclination (°)1.09909
eccentricity0.0244105
perihelion distance (AU)3.0226386
Tisserand w.r.t. Jupiter3.2
ΔV w.r.t. Earth (km/sec)10.7
semimajor axis (AU)3.0982688
mean anomaly (°)102.08836
mean daily motion (°/day)0.18072790
aphelion distance (AU)3.174
period (years)5.45
P-vector [x]-0.65824941
P-vector [y]-0.68660170
P-vector [z]-0.30868401
Q-vector [x]0.75256203
Q-vector [y]-0.61048340
Q-vector [z]-0.24690161
absolute magnitude16.5
phase slope0.15
uncertainty0
referenceMPO 779021
observations used165
oppositions14
arc length (days)9895
first opposition used1996
last opposition used2023
residual rms (arc-secs)0.70
perturbers coarse indicatorM-v
perturbers precise indicator003Ek
first observation date used1996-09-05.0
last observation date used2023-10-09.0
computer nameMPCLINUX
JD of orbit computation2456612.527782
perihelion JD uncertainty (days)6.4028E-04
argument of perihelion uncertainty (°)3.4865E-04
ascending node uncertainty (°)3.2960E-04
inclination uncertainty (°)8.4156E-06
eccentricity uncertainty 8.0022E-08
perihelion distance uncertainty (AU)2.5661E-07
Minimum Orbit Intersection Distances (in AU)
for orbit epoch: 2460200.5, reference: E2023-TC9
Mercury2.56141
Venus2.29903
Earth2.01091
Mars1.39879
Jupiter1.79421
Saturn5.89552
Uranus15.3815
Neptune26.6717

Observations

165 total observations over interval: 1996 09 05.35754 – 2023 10 09.264770
These data are available for download (format description).

Date (UT) J2000 RA J2000 Dec Magn Location Ref
1996 09 05.35754 23 44 28.89 +00 04 01.0 21.5 V 691 – Steward Observatory, Kitt Peak-Spacewatch MPS 280384
1996 09 05.37849 23 44 27.95 +00 03 56.4   691 – Steward Observatory, Kitt Peak-Spacewatch MPS 280384
1996 09 05.40083 23 44 27.01 +00 03 50.0   691 – Steward Observatory, Kitt Peak-Spacewatch MPS 280384
2003 12 17.43309 07 47 11.60 +20 30 47.0 21.9 V 291 – LPL/Spacewatch II MPS 280384
2003 12 17.45754 07 47 10.68 +20 30 48.7 21.8 V 291 – LPL/Spacewatch II MPS 280385
2003 12 17.48183 07 47 09.75 +20 30 50.2 21.9 V 291 – LPL/Spacewatch II MPS 280385
2005 05 12.20772 12 17 53.81 -03 22 03.5 20.9 R G96 – Mt. Lemmon Survey MPS 280385
2005 05 12.21701 12 17 53.67 -03 22 02.4 20.8 R G96 – Mt. Lemmon Survey MPS 280385
2005 05 12.22630 12 17 53.57 -03 22 01.5 19.5 R G96 – Mt. Lemmon Survey MPS 280385
2005 05 12.23560 12 17 53.41 -03 22 00.3 20.9 R G96 – Mt. Lemmon Survey MPS 280385
2007 09 13.36294 00 06 53.24 +02 28 46.7 21.2 V G96 – Mt. Lemmon Survey MPS 280385
2007 09 13.37074 00 06 52.92 +02 28 44.1 21.3 V G96 – Mt. Lemmon Survey MPS 280385
2007 09 13.37849 00 06 52.56 +02 28 42.4 21.0 V G96 – Mt. Lemmon Survey MPS 280385
2007 09 13.38640 00 06 52.23 +02 28 39.9 20.7 V G96 – Mt. Lemmon Survey MPS 280385
2007 10 11.26763 23 47 12.30 +00 17 36.9 21.3 V G96 – Mt. Lemmon Survey MPS 280385
2007 10 11.27362 23 47 12.12 +00 17 35.5 21.3 V G96 – Mt. Lemmon Survey MPS 280385
2007 10 11.27964 23 47 11.86 +00 17 34.2 21.7 V G96 – Mt. Lemmon Survey MPS 280385
2007 10 11.28563 23 47 11.65 +00 17 32.7 21.3 V G96 – Mt. Lemmon Survey MPS 280385
2008 11 06.43742 05 21 21.67 +23 25 24.3 20.2 V G96 – Mt. Lemmon Survey MPS 280385
2008 11 06.44179 05 21 21.45 +23 25 24.0 19.9 V G96 – Mt. Lemmon Survey MPS 280385
2008 11 06.44632 05 21 21.31 +23 25 24.3 20.1 V G96 – Mt. Lemmon Survey MPS 280385
2008 11 06.45071 05 21 21.16 +23 25 23.9 21.8 V G96 – Mt. Lemmon Survey MPS 280385
2008 11 21.32628 05 11 43.91 +23 12 04.1 20.7 V 691 – Steward Observatory, Kitt Peak-Spacewatch MPS 280385
2008 11 21.34396 05 11 43.08 +23 12 03.2 21.3 V 691 – Steward Observatory, Kitt Peak-Spacewatch MPS 280385
2008 11 21.36164 05 11 42.18 +23 12 01.8 21.6 V 691 – Steward Observatory, Kitt Peak-Spacewatch MPS 280385
2008 11 30.24489 05 04 20.56 +23 00 34.9 21.1 V 691 – Steward Observatory, Kitt Peak-Spacewatch MPS 269356
2008 11 30.26252 05 04 19.60 +23 00 33.7 21.0 V 691 – Steward Observatory, Kitt Peak-Spacewatch MPS 269356
2008 11 30.28015 05 04 18.65 +23 00 32.0 21.0 V 691 – Steward Observatory, Kitt Peak-Spacewatch MPS 269356
2008 11 30.39098 05 04 12.75 +23 00 22.4 20.9 V G96 – Mt. Lemmon Survey MPS 280385
2008 11 30.39663 05 04 12.43 +23 00 21.8 20.5 V G96 – Mt. Lemmon Survey MPS 280385
2008 11 30.40225 05 04 12.14 +23 00 21.2 20.7 V G96 – Mt. Lemmon Survey MPS 280385
2008 11 30.40793 05 04 11.85 +23 00 21.1 20.7 V G96 – Mt. Lemmon Survey MPS 280385
2008 12 04.21122 05 00 51.12 +22 54 43.0 20.8 V 691 – Steward Observatory, Kitt Peak-Spacewatch MPS 269356
2008 12 04.23264 05 00 49.97 +22 54 40.9 20.9 V 691 – Steward Observatory, Kitt Peak-Spacewatch MPS 269356
2008 12 04.24784 05 00 49.10 +22 54 39.2 21.2 V 691 – Steward Observatory, Kitt Peak-Spacewatch MPS 269356
2010 02 10.22006 10 29 00.83 +07 53 46.2   691 – Steward Observatory, Kitt Peak-Spacewatch MPS 313534
2010 02 10.23767 10 29 00.08 +07 53 50.7   691 – Steward Observatory, Kitt Peak-Spacewatch MPS 313534
2010 02 10.25530 10 28 59.32 +07 53 54.6   691 – Steward Observatory, Kitt Peak-Spacewatch MPS 313534
2011 05 21.27359 15 46 38.02 -20 32 40.1 19.9 V G96 – Mt. Lemmon Survey MPS 383334
2011 05 21.28104 15 46 37.63 -20 32 38.9 20.3 V G96 – Mt. Lemmon Survey MPS 383334
2011 05 21.28849 15 46 37.27 -20 32 38.2 20.6 V G96 – Mt. Lemmon Survey MPS 383334
2011 05 21.29604 15 46 36.84 -20 32 36.5 20.3 V G96 – Mt. Lemmon Survey MPS 383334
2011 06 07.38921 15 33 22.948 -19 42 48.39 20.8 w F51 – Pan-STARRS 1, Haleakala MPS 384706
2011 06 07.40342 15 33 22.343 -19 42 46.04 20.9 w F51 – Pan-STARRS 1, Haleakala MPS 384706
2011 06 07.43177 15 33 21.135 -19 42 41.27 21.0 w F51 – Pan-STARRS 1, Haleakala MPS 384706
2013 10 25.37110 02 42 22.93 +16 51 21.2 20.4 V G96 – Mt. Lemmon Survey MPS 483477
2013 10 25.37843 02 42 22.56 +16 51 19.5 20.9 V G96 – Mt. Lemmon Survey MPS 483477
2013 10 25.38576 02 42 22.17 +16 51 18.0 20.5 V G96 – Mt. Lemmon Survey MPS 483477
2013 10 25.42473 02 42 20.34 +16 51 09.4 20.3 V G96 – Mt. Lemmon Survey MPS 483477
2013 10 25.43174 02 42 19.97 +16 51 07.6 20.6 V G96 – Mt. Lemmon Survey MPS 483477
2013 10 25.43875 02 42 19.67 +16 51 06.3 20.6 V G96 – Mt. Lemmon Survey MPS 483477
2013 10 25.44576 02 42 19.32 +16 51 04.4 20.7 V G96 – Mt. Lemmon Survey MPS 483477
2013 10 25.47440 02 42 17.93 +16 50 58.3 20.6 V G96 – Mt. Lemmon Survey MPS 483477
2013 10 25.47913 02 42 17.78 +16 50 57.8 20.8 V G96 – Mt. Lemmon Survey MPS 483477
2013 10 25.48386 02 42 17.50 +16 50 56.0 20.5 V G96 – Mt. Lemmon Survey MPS 483477
2013 10 25.48860 02 42 17.30 +16 50 54.8 21.0 V G96 – Mt. Lemmon Survey MPS 483477
2013 10 25.52301 02 42 15.757 +16 50 48.37 20.9 i F51 – Pan-STARRS 1, Haleakala MPS 485086
2013 10 25.53560 02 42 15.165 +16 50 45.45 20.8 i F51 – Pan-STARRS 1, Haleakala MPS 485086
2014 12 21.58671 08 17 36.021 +18 52 09.47 21.5 w F51 – Pan-STARRS 1, Haleakala MPS 559898
2014 12 21.60057 08 17 35.539 +18 52 10.71 21.4 w F51 – Pan-STARRS 1, Haleakala MPS 559898
2014 12 21.61427 08 17 35.069 +18 52 11.92 21.7 w F51 – Pan-STARRS 1, Haleakala MPS 559898
2014 12 21.62800 08 17 34.605 +18 52 12.84 21.5 w F51 – Pan-STARRS 1, Haleakala MPS 559898
2015 01 13.34759 08 00 56.791 +19 35 14.80 20.9 w F51 – Pan-STARRS 1, Haleakala MPS 562289
2015 01 13.36113 08 00 56.063 +19 35 16.56 20.9 w F51 – Pan-STARRS 1, Haleakala MPS 562289
2015 01 13.37462 08 00 55.355 +19 35 18.25 20.9 w F51 – Pan-STARRS 1, Haleakala MPS 562289
2015 01 13.38814 08 00 54.638 +19 35 20.31 20.9 w F51 – Pan-STARRS 1, Haleakala MPS 562289
2015 01 16.33823 07 58 21.432 +19 41 49.47 20.7 w F51 – Pan-STARRS 1, Haleakala MPS 562289
2015 01 16.35040 07 58 20.785 +19 41 51.21 20.7 w F51 – Pan-STARRS 1, Haleakala MPS 562289
2015 01 16.36262 07 58 20.134 +19 41 52.93 20.7 w F51 – Pan-STARRS 1, Haleakala MPS 562289
2015 01 16.37490 07 58 19.467 +19 41 54.48 20.8 w F51 – Pan-STARRS 1, Haleakala MPS 562289
2015 02 06.10733 07 41 12.91 +20 23 19.0 21.2 V 691 – Steward Observatory, Kitt Peak-Spacewatch MPS 570864
2015 02 06.13598 07 41 11.65 +20 23 22.2 21.8 V 691 – Steward Observatory, Kitt Peak-Spacewatch MPS 570864
2015 02 06.16459 07 41 10.42 +20 23 25.2 21.4 V 691 – Steward Observatory, Kitt Peak-Spacewatch MPS 570864
2015 02 18.15753 07 33 54.40 +20 40 03.1 21.5 V G96 – Mt. Lemmon Survey MPS 582900
2015 02 18.16265 07 33 54.28 +20 40 03.8 21.9 V G96 – Mt. Lemmon Survey MPS 582900
2015 02 18.16776 07 33 54.12 +20 40 03.8 21.2 V G96 – Mt. Lemmon Survey MPS 582900
2015 02 18.17287 07 33 53.98 +20 40 04.2 20.4 V G96 – Mt. Lemmon Survey MPS 582900
2016 03 04.53703 13 31 41.748 -11 04 55.48 21.4 w F51 – Pan-STARRS 1, Haleakala MPS 692182
2016 03 04.54941 13 31 41.499 -11 04 54.56 21.6 w F51 – Pan-STARRS 1, Haleakala MPS 692182
2016 03 04.56175 13 31 41.262 -11 04 53.11 21.3 w F51 – Pan-STARRS 1, Haleakala MPS 692182
2016 03 12.49939 13 28 33.803 -10 48 34.41 21.3 w F51 – Pan-STARRS 1, Haleakala MPS 695486
2016 03 12.51209 13 28 33.427 -10 48 32.45 21.2 w F51 – Pan-STARRS 1, Haleakala MPS 695486
2016 03 12.52474 13 28 33.061 -10 48 30.60 21.4 w F51 – Pan-STARRS 1, Haleakala MPS 695486
2016 03 12.53739 13 28 32.677 -10 48 28.63 21.5 w F51 – Pan-STARRS 1, Haleakala MPS 695486
2016 04 16.40971 13 04 55.658 -08 26 26.58 20.6 r F51 – Pan-STARRS 1, Haleakala MPS 704408
2016 04 16.42144 13 04 55.118 -08 26 22.90 21.0 r F51 – Pan-STARRS 1, Haleakala MPS 704408
2016 04 16.44477 13 04 54.053 -08 26 16.59 20.7 r F51 – Pan-STARRS 1, Haleakala MPS 704408
2016 05 11.24299 12 50 20.83 -06 46 13.8 21.1 V G96 – Mt. Lemmon Survey MPS 709755
2016 05 11.24750 12 50 20.75 -06 46 13.7 21.6 V G96 – Mt. Lemmon Survey MPS 709755
2016 05 11.25202 12 50 20.65 -06 46 12.8 21.1 V G96 – Mt. Lemmon Survey MPS 709755
2016 05 11.25653 12 50 20.56 -06 46 11.6 21.4 V G96 – Mt. Lemmon Survey MPS 709755
